(216142) = 2006 SQ147 = 2008 DC80

Discovered at Kitt Peak on 2006-09-19 by Spacewatch.

Orbit

Orbit type: Main Belt

Note: WebGL enabled browser required.

epoch2023-09-13.0
epoch JD2460200.5
perihelion date2022-04-01.09592
perihelion JD2459670.59592
argument of perihelion (°)310.51564
ascending node (°)221.63122
inclination (°)1.67759
eccentricity0.1139663
perihelion distance (AU)2.0407528
Tisserand w.r.t. Jupiter3.6
ΔV w.r.t. Earth (km/sec)8.9
semimajor axis (AU)2.3032452
mean anomaly (°)149.41385
mean daily motion (°/day)0.28196400
aphelion distance (AU)2.566
period (years)3.5
P-vector [x]-0.99040507
P-vector [y]0.13398907
P-vector [z]0.03383379
Q-vector [x]-0.13681941
Q-vector [y]-0.91625180
Q-vector [z]-0.37651438
absolute magnitude17.67
phase slope0.15
uncertainty0
referenceMPEC 2023-X152
observations used437
oppositions14
arc length (days)8266
first opposition used2001
last opposition used2023
residual rms (arc-secs)0.68
perturbers coarse indicatorM-v
perturbers precise indicator003Ek
first observation date used2001-02-20.0
last observation date used2023-10-09.0
computer nameMPCLINUX
JD of orbit computation2456612.616683
perihelion JD uncertainty (days)7.6891E-05
argument of perihelion uncertainty (°)1.6622E-04
ascending node uncertainty (°)1.6516E-04
inclination uncertainty (°)5.0408E-06
eccentricity uncertainty 6.5094E-08
perihelion distance uncertainty (AU)1.4685E-07
Minimum Orbit Intersection Distances (in AU)
for orbit epoch: 2460200.5, reference: E2023-XF2
Mercury1.64266
Venus1.32472
Earth1.0452
Mars0.39085
Jupiter2.39935
Saturn6.72656
Uranus16.4049
Neptune27.31

Observations

444 total observations over interval: 2001 02 20.400830 – 2023 10 09.256818
These data are available for download (format description).

Date (UT) J2000 RA J2000 Dec Magn Location Ref
2001 02 20.400830 10 44 02.454 +04 52 27.94 19.83 V 645 – Apache Point-Sloan Digital Sky Survey MPS 244056
2001 02 20.404302 10 44 02.250 +04 52 29.10 20.46   645 – Apache Point-Sloan Digital Sky Survey MPS 244056
2003 11 15.47444 05 11 57.70 +21 45 19.4 22.0 V 291 – LPL/Spacewatch II MPS 244056
2003 11 15.49902 05 11 56.48 +21 45 16.5 21.4 V 291 – LPL/Spacewatch II MPS 244056
2003 11 15.52381 05 11 55.23 +21 45 13.8 21.3 V 291 – LPL/Spacewatch II MPS 244056
2003 12 19.30893 04 36 30.99 +20 22 02.9 20.9 V 691 – Steward Observatory, Kitt Peak-Spacewatch MPS 244056
2003 12 19.33651 04 36 29.24 +20 21 59.0 21.3 V 691 – Steward Observatory, Kitt Peak-Spacewatch MPS 244056
2003 12 19.36437 04 36 27.46 +20 21 54.5 21.2 V 691 – Steward Observatory, Kitt Peak-Spacewatch MPS 244056
2006 09 14.400694 01 06 54.71 +08 41 57.2 21.5 g 568 – Maunakea MPS 235485
2006 09 14.435417 01 06 53.20 +08 41 48.0 21.0 g 568 – Maunakea MPS 235485
2006 09 14.447222 01 06 52.69 +08 41 44.9 21.0 g 568 – Maunakea MPS 235485
2006 09 14.469444 01 06 51.72 +08 41 39.0 21.5 g 568 – Maunakea MPS 235485
2006 09 14.481944 01 06 51.18 +08 41 35.7 21.5 g 568 – Maunakea MPS 235485
2006 09 14.493056 01 06 50.69 +08 41 32.7 21.0 g 568 – Maunakea MPS 235485
2006 09 14.504861 01 06 50.18 +08 41 29.5 21.0 g 568 – Maunakea MPS 235485
2006 09 14.516667 01 06 49.66 +08 41 26.4 21.5 g 568 – Maunakea MPS 235485
2006 09 14.528472 01 06 49.15 +08 41 23.2 22.0 g 568 – Maunakea MPS 235485
2006 09 14.540278 01 06 48.63 +08 41 20.0 21.5 g 568 – Maunakea MPS 235485
2006 09 14.552083 01 06 48.12 +08 41 16.9 21.5 g 568 – Maunakea MPS 235485
2006 09 14.563889 01 06 47.60 +08 41 13.7 21.0 g 568 – Maunakea MPS 235485
2006 09 17.340972 01 04 47.68 +08 28 15.2 21.0 r 568 – Maunakea MPS 235485
2006 09 17.354167 01 04 47.07 +08 28 11.4 21.0 r 568 – Maunakea MPS 235485
2006 09 17.368750 01 04 46.39 +08 28 07.1 21.0 r 568 – Maunakea MPS 235485
2006 09 17.381250 01 04 45.81 +08 28 03.5 21.0 r 568 – Maunakea MPS 235485
2006 09 17.394444 01 04 45.19 +08 27 59.7 21.0 r 568 – Maunakea MPS 235485
2006 09 19.31284 01 03 16.56 +08 18 21.3 21.2 V 691 – Steward Observatory, Kitt Peak-Spacewatch MPS 181381
2006 09 19.33017 01 03 15.71 +08 18 15.5 21.2 V 691 – Steward Observatory, Kitt Peak-Spacewatch MPS 181381
2006 09 19.34756 01 03 14.79 +08 18 10.6 21.0 V 691 – Steward Observatory, Kitt Peak-Spacewatch MPS 181381
2006 09 20.424306 01 02 23.39 +08 12 33.6 21.5 g 568 – Maunakea MPS 235485
2006 09 20.429861 01 02 23.11 +08 12 31.9 21.0 g 568 – Maunakea MPS 235485
2006 09 20.435417 01 02 22.83 +08 12 30.1 21.5 g 568 – Maunakea MPS 235485
2006 09 20.441667 01 02 22.52 +08 12 28.1 21.0 g 568 – Maunakea MPS 235485
2006 09 20.447222 01 02 22.24 +08 12 26.4 21.0 g 568 – Maunakea MPS 235485
2006 09 20.511806 01 02 18.97 +08 12 05.8 21.0 g 568 – Maunakea MPS 235485
2006 09 20.521528 01 02 18.47 +08 12 02.7 21.0 g 568 – Maunakea MPS 235485
2006 09 20.527778 01 02 18.16 +08 12 00.7 21.0 g 568 – Maunakea MPS 235485
2006 09 20.533333 01 02 17.88 +08 11 58.9 22.0 g 568 – Maunakea MPS 235485
2006 09 20.538889 01 02 17.60 +08 11 57.1 21.5 g 568 – Maunakea MPS 235485
2006 09 20.544444 01 02 17.31 +08 11 55.3 21.0 g 568 – Maunakea MPS 235485
2006 09 20.550000 01 02 17.03 +08 11 53.6 21.0 g 568 – Maunakea MPS 235485
2006 09 20.555556 01 02 16.75 +08 11 51.8 21.0 g 568 – Maunakea MPS 235485
2006 09 20.561806 01 02 16.44 +08 11 49.8 21.5 g 568 – Maunakea MPS 235485
2006 09 20.567361 01 02 16.16 +08 11 48.0 21.5 g 568 – Maunakea MPS 235485
2006 09 21.313194 01 01 40.15 +08 07 47.6 21.5 g 568 – Maunakea MPS 235485
2006 09 21.325000 01 01 39.56 +08 07 43.8 21.0 g 568 – Maunakea MPS 235485
2006 09 21.347917 01 01 38.39 +08 07 36.4 21.5 g 568 – Maunakea MPS 235485
2006 09 21.370833 01 01 37.23 +08 07 29.1 21.0 g 568 – Maunakea MPS 235485
2006 09 21.406250 01 01 35.41 +08 07 17.6 21.0 g 568 – Maunakea MPS 235485
2006 09 21.417361 01 01 34.84 +08 07 14.0 21.0 g 568 – Maunakea MPS 235485
2006 09 21.463889 01 01 32.44 +08 06 58.9 21.0 g 568 – Maunakea MPS 235485
2006 09 22.400000 01 00 45.87 +08 01 50.4 21.0 g 568 – Maunakea MPS 235485
2006 09 22.411111 01 00 45.29 +08 01 46.8 21.0 g 568 – Maunakea MPS 235485
2006 09 22.422917 01 00 44.67 +08 01 42.9 21.0 g 568 – Maunakea MPS 235485
2006 09 22.434722 01 00 44.05 +08 01 38.9 21.0 g 568 – Maunakea MPS 235485
2006 09 22.457639 01 00 42.85 +08 01 31.3 21.0 g 568 – Maunakea MPS 235485
2006 09 22.468750 01 00 42.26 +08 01 27.6 21.0 g 568 – Maunakea MPS 235485
2006 09 22.480556 01 00 41.64 +08 01 23.7 21.0 g 568 – Maunakea MPS 235485
2006 09 22.491667 01 00 41.06 +08 01 20.0 21.0 g 568 – Maunakea MPS 235485
2006 09 22.503472 01 00 40.44 +08 01 16.0 21.0 g 568 – Maunakea MPS 235485
2006 09 22.515278 01 00 39.82 +08 01 12.1 21.0 g 568 – Maunakea MPS 235485
2006 09 22.527083 01 00 39.20 +08 01 08.1 21.0 g 568 – Maunakea MPS 235485
2006 09 22.538194 01 00 38.61 +08 01 04.4 21.0 g 568 – Maunakea MPS 235485
2006 09 22.550000 01 00 37.99 +08 01 00.4 21.0 g 568 – Maunakea MPS 235485
2006 09 22.561111 01 00 37.41 +08 00 56.7 21.0 g 568 – Maunakea MPS 235485
2006 09 22.572917 01 00 36.79 +08 00 52.7 21.0 g 568 – Maunakea MPS 235485
2006 09 22.584028 01 00 36.21 +08 00 49.0 21.5 g 568 – Maunakea MPS 235485
2006 09 26.32015 00 57 21.98 +07 39 12.1 21.0 V 691 – Steward Observatory, Kitt Peak-Spacewatch MPS 181381
2006 09 26.33759 00 57 21.03 +07 39 05.8 21.1 V 691 – Steward Observatory, Kitt Peak-Spacewatch MPS 181381
2006 09 26.35504 00 57 20.07 +07 38 59.8 21.2 V 691 – Steward Observatory, Kitt Peak-Spacewatch MPS 181381
2006 09 28.479861 00 55 24.97 +07 26 06.0 21.5 g 568 – Maunakea MPS 235485
2006 09 28.491667 00 55 24.30 +07 26 01.7 21.0 g 568 – Maunakea MPS 235485
2006 09 28.503472 00 55 23.62 +07 25 57.3 21.0 g 568 – Maunakea MPS 235485
2006 09 28.518750 00 55 22.76 +07 25 51.6 21.0 g 568 – Maunakea MPS 235485
2006 09 28.529861 00 55 22.12 +07 25 47.4 21.0 g 568 – Maunakea MPS 235485
2006 09 28.541667 00 55 21.45 +07 25 43.0 21.5 g 568 – Maunakea MPS 235485
2006 09 30.31539 00 53 43.71 +07 14 37.3 21.3 V 691 – Steward Observatory, Kitt Peak-Spacewatch MPS 182891
2006 09 30.33275 00 53 42.65 +07 14 30.8 21.0 V 691 – Steward Observatory, Kitt Peak-Spacewatch MPS 182891
2006 09 30.35003 00 53 41.66 +07 14 24.7 21.0 V 691 – Steward Observatory, Kitt Peak-Spacewatch MPS 182891
2006 10 13.41877 00 41 24.40 +05 48 43.2 20.9 r 568 – Maunakea MPS 309194
2006 10 13.45923 00 41 22.07 +05 48 27.1 20.9 r 568 – Maunakea MPS 309194
2006 10 13.50159 00 41 19.62 +05 48 10.5 20.9 r 568 – Maunakea MPS 309194
2008 01 30.40629 11 02 14.68 +03 08 37.5 20.3 V 691 – Steward Observatory, Kitt Peak-Spacewatch MPS 286935
2008 01 30.42437 11 02 14.26 +03 08 39.5 20.6 V 691 – Steward Observatory, Kitt Peak-Spacewatch MPS 286935
2008 01 30.44269 11 02 13.72 +03 08 41.0 20.2 V 691 – Steward Observatory, Kitt Peak-Spacewatch MPS 286935
2008 02 11.32907 10 55 52.26 +03 41 53.1   704 – Lincoln Laboratory ETS, New Mexico MPS 406957
2008 02 11.35002 10 55 51.31 +03 41 59.1   691 – Steward Observatory, Kitt Peak-Spacewatch MPS 244056
2008 02 11.35323 10 55 51.24 +03 41 59.4   704 – Lincoln Laboratory ETS, New Mexico MPS 406957
2008 02 11.37111 10 55 50.39 +03 42 03.5   691 – Steward Observatory, Kitt Peak-Spacewatch MPS 244056
2008 02 11.37736 10 55 50.17 +03 42 05.6   704 – Lincoln Laboratory ETS, New Mexico MPS 406957
2008 02 11.38874 10 55 49.54 +03 42 08.4   691 – Steward Observatory, Kitt Peak-Spacewatch MPS 244056
2008 02 27.25596 10 42 25.74 +05 05 02.2 19.8 V G96 – Mt. Lemmon Survey MPS 244132
2008 02 27.26318 10 42 25.34 +05 05 05.1 19.5 V G96 – Mt. Lemmon Survey MPS 244132
2008 02 27.27037 10 42 24.91 +05 05 07.8 19.9 V G96 – Mt. Lemmon Survey MPS 244132
2008 02 27.27756 10 42 24.48 +05 05 10.4 19.5 V G96 – Mt. Lemmon Survey MPS 244132
2008 03 02.25851 10 38 41.46 +05 29 48.7 19.4 V 703 – Catalina Sky Survey MPS 244132
2008 03 02.26672 10 38 40.95 +05 29 51.2 19.8 V 703 – Catalina Sky Survey MPS 244132
2008 03 02.27495 10 38 40.48 +05 29 53.3 19.6 V 703 – Catalina Sky Survey MPS 244132
2008 03 02.28316 10 38 39.94 +05 29 57.4 19.3 V 703 – Catalina Sky Survey MPS 244132
